GFSSE_850_temp_021.txt.gz
Temp
17 17 16 16 16 16 16 16 16 16 16 16 15 16 16 16 16 16 16 16 16 16 16 15 15 15 15 15 15 15 14 14 14 13 13 13 13 13 14 14 14 14 14
17 17 17 16 16 15 15 15 15 15 15 15 15 16 16 16 15 16 16 16 16 15 15 15 15 15 15 15 15 15 14 14 13 13 12 12 13 14 14 14 14 14 14
17 16 16 16 15 15 15 15 15 15 15 16 15 15 15 15 15 15 15 15 15 15 15 15 15 15 15 15 14 14 14 14 13 14 13 12 13 14 14 14 14 14 13
16 16 16 15 15 15 15 15 15 15 15 15 16 16 15 16 15 15 15 15 15 15 15 14 14 14 14 15 15 15 14 15 14 14 14 13 14 14 13 13 13 13 13
16 15 15 15 14 14 14 14 15 15 15 15 16 15 15 15 15 15 15 15 15 15 14 14 14 14 14 15 15 15 14 14 14 14 14 14 14 14 13 12 12 12 13
15 15 15 14 14 14 14 14 14 15 15 15 15 15 15 15 15 15 15 15 15 15 15 15 15 14 14 14 14 14 14 13 13 13 14 13 13 13 13 12 12 12 12
14 14 13 13 13 14 14 15 15 15 15 15 15 15 15 15 15 15 15 15 15 15 15 14 14 14 14 13 14 13 14 14 13 13 13 13 13 13 13 12 12 12 12
13 13 13 13 13 13 14 14 14 15 15 15 15 15 15 15 15 15 15 15 15 15 14 14 14 14 13 13 13 13 13 13 13 13 13 13 13 12 13 12 11 11 11
12 12 12 13 12 13 14 14 14 15 15 15 15 15 15 15 15 15 15 14 14 14 14 14 13 13 13 12 12 13 13 13 12 12 12 13 13 12 12 12 11 11 11
12 12 10 12 12 13 13 14 15 15 14 15 15 14 14 14 14 14 14 14 14 14 13 13 13 13 12 12 12 12 12 12 12 12 12 12 12 12 12 12 11 10 10
12 13 13 13 12 13 14 14 15 15 14 14 14 14 14 13 13 13 13 13 13 13 12 12 12 12 12 12 12 12 12 12 12 12 11 11 11 11 11 11 11 10 10
12 12 13 12 13 14 14 15 14 14 14 14 13 13 13 13 13 13 13 12 12 12 12 12 12 12 11 11 11 11 11 11 11 11 11 11 10 10 10 10 10 10 10
13 12 12 13 14 14 14 14 13 13 13 13 13 13 12 12 12 12 13 12 12 12 12 12 12 12 11 11 11 11 10 10 10 10 10 10 9 9 9 9 9 9 9
13 13 13 13 14 14 13 13 13 12 13 13 13 12 13 12 12 12 12 12 12 12 12 12 12 12 11 11 11 10 10 10 9 9 9 9 9 9 9 8 8 8 8
13 13 13 13 14 13 13 12 13 14 14 13 14 13 12 12 12 13 13 12 12 11 11 11 11 11 10 10 10 10 10 9 9 9 9 8 8 8 8 8 7 7 7
14 14 13 13 14 13 13 13 14 14 14 13 14 13 12 13 13 12 12 12 11 11 11 11 10 10 10 10 10 10 9 9 9 9 8 8 8 8 8 7 7 6 6
15 14 14 13 14 13 14 14 14 14 14 13 13 13 13 12 11 11 11 11 11 10 10 10 10 10 10 9 9 8 8 8 8 8 8 8 7 7 7 7 6 5 5
16 14 13 13 13 13 14 14 14 14 14 13 12 12 13 12 11 11 12 11 11 10 10 10 9 8 8 8 7 7 7 7 7 7 7 7 7 7 6 6 5 4 3
17 16 14 14 13 14 14 13 13 13 13 12 12 12 12 12 11 11 10 10 10 9 9 9 8 8 8 7 6 6 6 6 6 6 6 6 6 5 5 5 4 4 3
16 15 14 14 13 13 13 13 13 12 11 11 11 12 12 11 10 10 10 9 9 8 8 8 7 7 7 6 5 5 5 5 5 5 5 5 5 4 4 3 3 3 2
16 15 14 14 13 13 12 13 12 11 10 10 12 11 11 10 10 9 9 9 9 8 8 7 7 6 5 5 4 4 4 4 4 4 4 4 4 3 3 3 2 2 1
16 16 15 14 15 13 12 12 11 11 10 11 11 10 10 10 9 9 8 8 7 7 7 6 5 5 4 4 4 3 3 3 3 3 3 3 3 2 2 2 1 1 0
15 15 15 14 14 13 12 11 11 10 10 10 10 10 9 8 8 9 8 7 7 6 6 5 5 4 3 3 3 3 2 1 1 1 1 1 2 2 1 1 0 0 -0
15 16 14 14 13 12 11 12 11 11 11 10 10 8 8 9 9 8 8 7 7 6 5 5 4 3 3 2 2 2 2 1 0 0 0 -0 0 0 1 0 -0 -1 -1
15 15 13 13 12 12 12 12 12 11 11 10 8 8 8 9 8 7 7 7 6 6 5 4 3 2 2 2 1 1 1 0 0 -0 -1 -1 -1 -1 -1 -1 -1 -1 -1
15 14 13 12 12 12 12 12 11 11 10 9 9 9 9 8 7 7 6 6 5 4 3 2 2 2 2 1 1 0 -0 -1 -1 -1 -1 -1 -1 -2 -2 -2 -2 -2 -2

GFSSE_850_temp_024.txt.gz
Temp
16 17 16 16 16 16 16 16 16 16 16 16 17 17 17 16 16 16 16 16 15 15 15 15 15 15 15 14 14 14 14 14 13 13 13 13 14 13 13 14 14 14 13
17 17 16 16 15 15 16 15 15 15 16 16 16 16 16 16 16 16 16 16 15 15 15 15 15 14 14 14 14 14 14 14 14 14 13 14 14 13 13 13 13 13 13
16 16 15 16 15 15 15 15 15 15 16 16 16 16 16 16 16 16 16 16 15 15 15 15 15 14 14 14 14 14 14 14 14 14 14 14 14 14 14 13 13 13 12
16 16 16 16 16 15 15 15 15 15 16 16 16 16 16 16 16 16 16 15 15 15 15 14 14 15 15 14 13 14 14 14 13 13 13 14 14 14 13 13 12 12 12
16 16 15 15 15 14 14 14 15 15 15 16 16 16 16 16 16 16 16 15 15 15 15 15 15 14 14 14 13 13 13 13 13 13 13 13 13 13 13 13 12 12 12
14 15 15 15 14 14 14 14 15 15 16 16 16 16 16 16 16 16 16 16 15 15 15 14 14 14 14 14 13 13 13 13 13 13 13 13 13 13 13 12 12 12 12
13 14 14 14 14 14 14 14 15 15 16 16 16 16 16 16 16 16 16 15 15 15 14 14 14 13 13 13 13 13 13 13 12 12 12 12 13 12 12 12 12 12 11
13 13 13 13 12 13 13 14 14 15 15 15 15 15 16 16 16 15 15 15 14 14 14 14 13 13 13 13 13 12 13 13 12 12 12 12 12 12 12 12 12 11 11
13 12 12 12 13 12 12 14 15 15 15 15 15 15 15 15 15 15 14 14 14 14 14 13 13 13 13 12 13 12 12 12 12 12 11 11 11 11 11 11 11 11 10
11 10 11 11 13 13 13 14 15 15 15 15 15 15 15 15 14 14 14 14 13 13 13 12 12 13 13 12 12 12 12 12 11 11 11 11 11 11 10 11 11 10 10
11 11 12 13 12 12 14 14 14 15 15 14 15 14 14 14 13 13 13 13 12 12 12 12 12 12 12 12 12 12 11 11 11 11 11 11 11 10 10 10 10 10 10
11 11 13 13 13 13 14 14 14 14 14 14 14 13 13 13 13 12 12 12 12 12 12 12 12 12 11 11 11 11 11 10 10 10 10 10 9 9 9 9 9 9 9
12 12 12 12 13 13 14 14 14 14 13 12 12 13 12 12 13 12 12 12 12 12 12 12 11 11 11 11 11 11 10 10 10 9 9 9 9 9 9 8 8 8 8
13 12 12 12 13 13 13 13 13 13 13 13 13 12 12 12 12 12 13 12 12 12 11 11 11 11 11 11 11 10 10 10 9 9 9 8 8 8 8 7 8 8 7
13 13 13 13 13 13 13 13 13 13 13 13 12 12 12 12 12 12 12 12 12 11 11 11 11 11 11 10 10 10 9 9 9 8 8 8 8 7 7 7 7 7 7
13 13 13 13 13 13 13 13 13 12 13 13 13 12 12 12 12 12 12 12 12 11 11 11 11 10 10 10 10 9 9 9 8 8 8 8 8 7 7 7 6 6 5
14 13 13 13 13 13 13 13 13 12 12 13 13 12 12 13 13 12 11 11 11 11 11 10 10 9 9 9 8 8 8 7 7 7 7 7 7 7 6 5 5 5 4
14 13 13 13 13 13 13 13 13 13 13 13 12 12 12 13 12 12 11 11 10 11 10 10 10 9 8 8 7 7 6 6 6 6 6 6 6 6 5 4 4 4 4
14 13 13 13 13 13 13 13 13 13 13 13 12 12 12 12 12 12 11 11 11 10 10 9 8 8 8 7 6 6 5 5 5 5 5 5 4 4 3 3 3 3 2
16 15 14 13 13 13 13 13 13 13 13 12 12 11 11 12 12 12 12 10 10 9 9 9 8 8 7 6 6 5 4 4 4 4 4 4 4 3 3 2 2 2 2
15 15 15 15 14 13 13 13 13 13 13 12 12 11 12 12 12 12 11 10 10 10 9 8 7 7 6 6 5 4 4 4 3 3 3 3 2 2 2 2 2 1 1
15 15 15 15 14 13 14 13 13 13 13 11 11 11 11 11 11 10 10 10 10 9 8 7 6 6 5 4 3 3 3 3 2 3 2 2 2 2 2 1 1 -0 -0
15 15 14 14 14 14 13 12 12 12 11 11 10 10 10 10 10 10 10 10 8 7 6 6 5 4 3 3 2 2 2 1 1 1 1 1 1 1 1 1 -0 -1 -1
15 15 16 14 13 13 12 12 12 12 11 11 11 10 10 10 10 10 9 8 7 6 6 6 5 4 3 2 2 2 1 1 0 0 0 -0 -0 -0 -0 -0 -1 -1 -2
16 16 14 13 12 12 11 11 12 12 11 11 10 9 9 9 9 8 7 6 6 6 5 5 4 3 2 1 1 1 1 0 0 -0 -1 -1 -1 -1 -1 -1 -1 -1 -2
16 16 14 12 12 11 11 11 11 11 11 10 9 9 9 8 8 7 6 6 6 5 5 4 2 2 1 1 0 0 -0 -1 -1 -1 -1 -1 -2 -2 -2 -2 -2 -2 -2

GFSSE_850_temp_030.txt.gz
Temp
16 15 15 15 16 16 17 17 17 17 17 18 17 17 17 16 16 16 16 16 16 15 15 15 15 15 14 14 14 14 13 13 13 13 13 14 13 13 13 13 13 13 13
16 16 15 15 16 17 17 17 17 17 17 17 17 17 16 16 16 16 16 15 15 15 15 15 14 14 14 14 14 13 13 13 13 13 13 13 13 13 13 13 13 12 12
15 15 15 15 16 16 17 17 17 17 17 17 16 16 16 16 16 16 15 15 15 14 14 14 14 14 14 13 13 13 13 13 13 13 13 13 13 12 13 13 12 12 12
14 14 14 15 16 16 16 16 16 17 17 17 16 16 16 16 15 15 15 15 15 14 14 14 14 14 14 14 14 13 13 13 12 12 12 12 12 12 12 12 13 12 12
14 14 14 15 15 16 15 15 16 17 17 16 16 16 16 15 15 15 15 14 14 14 14 14 14 14 14 14 14 13 13 12 12 12 12 12 12 12 12 12 12 12 12
14 14 14 14 15 15 15 16 16 17 16 16 16 16 15 15 15 15 15 14 14 14 14 14 14 14 14 14 13 13 13 12 12 12 12 12 12 12 12 12 12 12 12
13 14 14 14 14 15 15 15 16 16 16 16 16 15 15 15 15 14 14 14 14 13 13 13 13 13 13 13 13 13 12 12 12 12 12 11 11 11 11 11 11 11 11
13 13 13 13 12 13 14 16 15 16 15 16 15 15 15 15 14 14 14 14 14 14 13 13 13 13 13 13 13 12 12 12 12 11 11 11 11 11 11 10 10 10 10
13 13 12 11 11 12 14 15 15 15 15 15 15 15 15 14 14 14 14 14 14 13 13 13 13 13 12 12 12 12 12 12 11 11 11 11 10 10 10 10 9 9 9
13 12 12 11 10 11 14 14 14 15 15 15 15 14 14 14 14 14 13 14 13 13 13 13 12 12 12 12 12 12 11 11 11 10 10 10 9 9 9 9 9 9 9
11 12 11 10 9 12 13 13 13 14 15 15 14 14 14 14 14 13 13 13 13 13 13 13 12 12 12 12 11 11 11 10 10 10 10 9 8 8 8 8 8 8 8
11 10 9 9 11 11 11 12 13 15 14 14 13 13 14 14 14 13 13 13 13 13 12 12 12 12 11 11 11 10 10 10 10 9 9 9 8 8 8 7 8 7 7
11 10 10 10 11 10 11 13 13 14 13 13 13 13 13 13 13 13 13 13 13 12 12 12 11 11 11 11 11 10 10 10 9 9 9 8 8 7 7 7 7 7 6
10 11 10 9 11 12 12 13 14 13 13 13 12 13 13 13 13 13 12 12 12 12 11 11 11 11 11 10 10 10 9 9 9 9 9 8 8 7 7 7 6 6 6
11 11 11 11 11 12 12 13 12 12 12 12 12 12 13 13 12 12 12 12 11 11 11 11 10 10 10 10 9 9 9 9 9 9 8 7 7 7 6 6 5 5 4
12 12 12 12 12 12 12 12 12 12 12 12 12 12 12 12 12 12 12 11 11 11 11 10 10 10 10 10 9 9 8 8 8 8 8 7 7 6 6 6 5 4 3
13 12 12 11 12 12 12 12 12 12 12 12 12 12 12 12 11 11 11 11 11 11 10 10 11 10 10 9 8 8 7 7 7 6 6 6 6 6 6 5 4 3 3
13 13 12 12 12 12 12 12 12 12 12 12 12 12 12 11 11 11 11 11 10 10 11 10 10 9 9 8 8 8 7 6 5 5 5 5 5 5 5 3 3 3 3
14 13 13 12 13 12 11 11 11 12 12 12 12 12 12 12 11 11 10 10 10 10 10 9 9 8 8 7 7 7 6 5 5 4 4 4 4 4 4 3 3 2 2
13 13 13 13 12 12 12 11 11 11 12 12 12 12 12 11 11 10 10 10 10 10 9 8 8 8 7 7 6 6 5 4 3 3 3 3 3 3 3 3 2 2 2
13 13 13 13 13 13 12 12 11 12 12 12 12 11 11 11 10 10 10 10 9 8 8 7 7 7 7 7 6 5 5 4 3 3 2 2 2 2 2 1 1 1 1
15 14 13 13 13 12 12 12 12 12 11 11 11 11 11 10 10 9 9 9 9 8 7 7 7 8 7 6 5 5 4 3 3 3 2 2 1 1 1 1 0 0 -0
14 14 14 14 13 13 12 12 12 11 11 11 11 11 10 10 9 9 9 8 8 7 7 7 8 8 7 6 4 3 3 2 2 2 1 1 0 0 0 -0 -0 -1 -1
15 14 14 15 14 13 13 13 12 12 12 11 11 10 9 9 9 9 8 8 7 7 7 7 7 7 7 5 3 3 2 1 0 -0 -0 -0 -0 -0 -0 -1 -1 -1 -2
16 16 15 14 14 13 13 13 12 11 11 10 10 9 9 9 9 8 8 7 7 7 7 7 7 6 5 4 2 2 1 0 -0 -1 -1 -1 -1 -1 -1 -1 -2 -2 -2
16 15 14 14 13 14 13 13 12 11 10 9 9 9 9 9 8 8 7 7 7 7 7 7 6 5 4 3 1 1 -0 -1 -1 -1 -2 -2 -2 -2 -2 -2 -2 -3 -3

GFSSE_850_temp_033.txt.gz
Temp
15 15 15 16 16 16 17 17 17 17 17 17 17 17 17 16 16 16 16 16 16 15 15 14 14 14 14 14 14 14 14 13 13 14 13 13 14 14 14 14 13 12 13
15 15 15 15 16 16 16 16 16 17 17 17 17 17 16 16 16 16 16 16 15 15 15 15 14 14 14 14 14 13 13 13 13 13 13 13 13 13 13 13 13 13 13
14 14 14 15 16 16 16 16 16 17 17 17 17 16 16 16 16 15 15 15 15 15 15 15 15 14 14 14 13 13 13 13 13 13 13 12 13 13 12 13 13 13 13
14 14 14 15 15 15 16 16 17 17 17 16 17 16 16 16 16 15 15 15 15 15 15 15 14 14 14 13 13 13 13 13 12 13 13 11 11 12 12 12 12 13 13
14 14 14 14 15 15 15 16 16 16 16 16 16 16 15 15 15 15 15 15 15 15 15 14 14 14 14 13 13 13 13 12 12 12 12 11 10 11 11 12 12 12 12
14 14 14 14 15 15 15 15 16 16 15 16 15 15 15 15 14 15 15 15 14 14 14 14 14 14 13 13 13 13 12 12 12 12 12 12 11 11 11 11 11 11 11
14 14 13 13 14 14 15 15 15 16 15 15 15 15 15 15 14 14 14 14 14 14 14 14 13 13 13 13 12 12 12 12 12 12 10 10 10 11 11 10 10 10 10
14 13 13 12 13 13 13 15 15 16 15 15 15 15 15 14 14 14 14 13 14 13 13 13 13 13 12 12 12 12 11 11 11 11 11 9 10 10 10 10 10 9 9
14 13 12 11 11 11 12 15 15 15 15 15 15 15 14 14 14 14 13 13 13 13 13 13 12 12 12 12 12 11 11 11 11 11 10 9 10 10 9 9 9 9 9
13 13 12 11 11 9 10 12 14 15 15 15 15 14 14 14 14 14 14 13 13 13 12 12 12 12 12 12 11 11 11 11 11 10 9 8 9 8 8 8 8 8 8
12 12 11 11 10 8 11 13 14 14 13 14 14 14 14 14 13 13 14 14 13 12 12 12 12 12 11 11 11 11 11 10 10 10 9 9 8 8 8 8 8 7 7
11 11 10 9 8 10 12 13 13 13 14 14 13 14 14 13 13 13 13 13 12 12 12 12 12 11 11 11 11 10 10 10 10 9 9 9 8 8 7 7 7 7 7
9 8 8 8 9 10 11 11 11 12 13 13 13 14 13 13 13 13 13 12 12 12 12 12 11 11 11 11 10 10 10 10 10 9 9 8 8 7 7 7 6 6 6
9 9 8 8 9 9 10 11 12 13 13 13 13 13 13 13 13 12 12 12 12 12 12 11 11 11 11 10 10 10 10 10 9 9 8 8 8 7 7 7 6 5 5
9 9 9 9 9 10 11 11 13 13 13 13 13 13 13 12 12 12 12 12 12 11 11 11 11 11 11 10 10 10 9 9 9 9 8 8 7 7 7 6 6 5 4
9 10 10 10 11 11 12 12 12 13 13 12 12 12 12 12 12 12 12 12 11 11 11 11 11 11 10 10 9 9 9 9 9 8 8 8 7 7 6 6 5 4 4
11 11 11 11 11 11 12 12 12 12 12 12 12 12 12 12 12 12 11 11 11 11 11 10 10 10 10 9 9 8 8 8 8 7 7 6 6 6 5 5 4 4 3
12 12 12 11 10 11 12 12 12 12 12 12 12 12 12 12 11 11 11 11 11 10 10 10 10 9 9 8 8 8 7 6 6 5 5 5 5 5 4 4 4 4 3
12 12 12 11 11 12 12 12 12 12 12 12 12 12 12 12 11 11 11 10 10 10 10 10 9 9 8 8 8 6 5 5 5 4 4 4 4 3 3 3 3 3 3
13 12 12 12 12 12 12 12 11 11 11 11 12 12 12 11 11 11 10 10 10 10 9 9 8 8 7 7 6 6 6 5 4 4 3 3 3 3 3 3 2 2 2
13 12 12 12 12 12 12 12 11 12 12 11 12 11 12 11 11 10 10 10 10 9 9 8 8 7 7 7 6 6 5 5 4 3 3 3 2 2 2 2 1 1 1
13 13 13 13 13 13 12 12 12 12 11 12 11 11 11 11 11 10 10 10 9 9 8 8 8 7 7 7 6 5 4 3 3 3 2 2 1 1 1 1 0 -0 -0
14 14 13 13 13 12 13 12 12 11 11 10 11 11 11 11 10 10 9 9 9 8 7 7 7 7 6 7 7 5 4 4 2 2 2 1 1 0 0 -0 -1 -1 -1
15 14 14 14 13 13 12 12 12 12 12 11 11 11 10 10 9 9 9 9 8 7 7 7 6 7 7 6 6 5 4 3 2 2 0 0 0 -0 -1 -1 -1 -2 -2
16 15 15 14 13 13 13 13 13 13 13 11 10 10 9 9 9 8 8 8 8 8 8 8 6 5 5 6 5 4 3 2 1 0 1 0 -1 -1 -1 -2 -2 -2 -2
16 16 15 14 14 13 13 13 13 13 12 10 10 10 9 9 8 8 8 8 8 8 7 6 6 6 5 5 5 3 2 0 0 -1 -1 -1 -2 -2 -2 -2 -2 -3 -3